Location: Silverdale
(47.6506°N, 122.6941°W)
Time: 15:12:23
(UTC+00:00)

Transit 2A Rocket - All Passes

Search period start: 26 September 2022 00:00
Search period end: 06 October 2022 00:00
Orbit: 593 x 907 km, 66.7° (Epoch: 25 September)

Date Brightness Start Highest point End Pass type
(mag) Time Alt. Az. Time Alt. Az. Time Alt. Az.
26 Sep - 00:44:31 10° NW 00:49:06 48° WSW 00:54:04 10° S daylight
26 Sep - 15:22:30 10° SSW 15:26:44 56° ESE 15:30:59 10° NE daylight
26 Sep - 17:06:07 10° W 17:09:34 23° NW 17:13:05 10° NNE daylight
26 Sep - 22:19:43 10° NNW 22:23:14 21° NE 22:26:57 10° E daylight
27 Sep - 00:01:32 10° NW 00:06:16 81° WSW 00:11:26 10° SSE daylight
27 Sep - 01:46:12 10° W 01:48:10 12° WSW 01:50:10 10° SW daylight
27 Sep - 14:40:11 10° S 14:44:00 31° ESE 14:47:49 10° NE daylight
27 Sep - 16:22:28 10° WSW 16:26:25 35° NW 16:30:27 10° NNE daylight
27 Sep - 21:37:16 10° N 21:39:57 15° NNE 21:42:44 10° ENE daylight
27 Sep - 23:18:41 10° NNW 23:23:21 62° NE 23:28:26 10° SE daylight
28 Sep - 01:01:55 10° WNW 01:05:33 21° WSW 01:09:24 10° SSW daylight
28 Sep - 13:58:29 10° SSE 14:01:21 17° ESE 14:04:13 10° ENE daylight
28 Sep - 15:39:09 10° SW 15:43:24 58° NW 15:47:42 10° NNE daylight
28 Sep - 17:24:49 10° WNW 17:26:54 13° NNW 17:29:00 10° N daylight
28 Sep - 20:55:11 10° N 20:56:33 11° NNE 20:57:57 10° NE daylight
28 Sep - 22:35:56 10° NNW 22:40:20 39° NE 22:45:06 10° ESE daylight
29 Sep - 00:18:28 10° NW 00:22:50 35° WSW 00:27:34 10° S daylight
29 Sep - 14:56:10 10° SSW 15:00:29 81° ESE 15:04:50 10° NE daylight
29 Sep - 16:40:32 10° W 16:43:34 18° NW 16:46:39 10° N daylight
29 Sep - 21:53:17 10° NNW 21:57:14 26° NE 22:01:26 10° E daylight
29 Sep - 23:35:21 10° NW 23:40:03 60° WSW 23:45:11 10° SSE daylight
30 Sep - 14:13:35 10° S 14:17:41 44° ESE 14:21:48 10° NE daylight
30 Sep - 15:56:41 10° W 16:00:21 27° NW 16:04:06 10° NNE daylight
30 Sep - 21:10:44 10° N 21:14:00 18° NE 21:17:26 10° E daylight
30 Sep - 22:52:25 10° NNW 22:57:11 83° NE 23:02:24 10° SE daylight
01 Oct - 00:36:19 10° WNW 00:39:12 16° WSW 00:42:13 10° SW daylight
01 Oct - 13:31:28 10° SSE 13:34:59 25° ESE 13:38:30 10° ENE visible
01 Oct - 15:13:09 10° WSW 15:17:15 42° NW 15:21:25 10° NNE daylight
01 Oct - 16:59:47 10° NW 17:01:00 11° NNW 17:02:13 10° N daylight
01 Oct - 20:28:22 10° N 20:30:40 13° NNE 20:33:04 10° ENE daylight
01 Oct - 22:09:36 10° NNW 22:14:14 51° NE 22:19:16 10° SE daylight
01 Oct - 23:52:31 10° WNW 23:56:33 26° WSW 00:00:51 10° SSW daylight
02 Oct - 12:50:11 10° SE 12:52:23 14° ESE 12:54:35 10° ENE visible
02 Oct - 14:29:58 10° SW 14:34:16 72° NW 14:38:38 10° NNE daylight
02 Oct - 16:15:06 10° WNW 16:17:37 15° NNW 16:20:11 10° N daylight
02 Oct - 19:46:51 10° NNE 19:47:14 10° NNE 19:47:37 10° NNE daylight
02 Oct - 21:26:53 10° NNW 21:31:11 33° NE 21:35:47 10° ESE daylight
02 Oct - 23:09:14 10° NW 23:13:49 44° WSW 23:18:46 10° S daylight
03 Oct - 13:47:09 10° SSW 13:51:24 64° ESE 13:55:42 10° NE daylight
03 Oct - 15:31:00 10° W 15:34:19 21° NW 15:37:43 10° NNE daylight
03 Oct - 20:44:16 10° NNW 20:48:01 23° NE 20:52:00 10° E daylight
03 Oct - 22:26:12 10° NW 22:30:59 73° WSW 22:36:14 10° SSE daylight
04 Oct - 00:11:27 10° W 00:12:49 11° WSW 00:14:11 10° WSW daylight
04 Oct - 13:04:43 10° S 13:08:38 35° ESE 13:12:35 10° NE visible
04 Oct - 14:47:16 10° WSW 14:51:09 32° NW 14:55:06 10° NNE daylight
04 Oct - 20:01:46 10° N 20:04:46 16° NNE 20:07:53 10° ENE daylight
04 Oct - 21:43:18 10° NNW 21:48:05 69° NE 21:53:17 10° SE daylight
04 Oct - 23:26:44 10° WNW 23:30:13 19° WSW 23:33:54 10° SSW daylight
05 Oct - 12:22:51 10° SSE 12:25:58 20° ESE 12:29:06 10° ENE visible
05 Oct - 14:03:53 10° SW 14:08:05 52° NW 14:12:22 10° NNE daylight
05 Oct - 15:49:49 10° NW 15:51:41 12° NNW 15:53:34 10° N daylight
05 Oct - 19:19:30 10° N 19:21:23 12° NNE 19:23:18 10° NE daylight
05 Oct - 21:00:32 10° NNW 21:05:05 43° NE 21:10:01 10° ESE daylight
05 Oct - 22:43:12 10° NW 22:47:32 32° WSW 22:52:12 10° S daylight
